User: anonymous   Login
Location: Unspecified
(0.0000°N, 0.0000°E)
Time: 23:05:06
(UTC+00:00)
Language:

KORONAS-FOTON - Orbit

View from above orbital plane
View from above orbital plane
View from above satellite
View from above satellite

Ground track
Ground track

The orbit data is extracted from the following two-line orbital elements,

1 33504U 09003A   16124.48429143  .00001207  00000-0  63970-4 0  9995
2 33504  82.4415 279.9239 0021244  85.9758 274.3901 15.14255195399462
Epoch (UTC): 03 May 2016 11:37:22
Eccentricity: 0.0021244
inclination: 82.4415°
perigee height: 508 km
apogee height: 538 km
right ascension of ascending node: 279.9239°
argument of perigee: 85.9758°
revolutions per day: 15.14255195
mean anomaly at epoch: 274.3901°
orbit number at epoch: 39946

The dashed part of the orbit path shows where the satellite is in the earth's shadow,  

DLR